Location: Unspecified
(0.0000°N, 0.0000°E)
Time: 20:42:32
(UTC+02:00)

Milstar 3 - Visible Passes

Search period start: 21 May 2018 00:00
Search period end: 31 May 2018 00:00
Orbit: 1099 x 5146 km, 28.2° (Epoch: 21 March)

Date Brightness Start Highest point End Pass type
(mag) Time Alt. Az. Time Alt. Az. Time Alt. Az.
21 May 6.2 02:00:01 10° W 02:30:15 47° NNW 02:55:17 10° NE visible
21 May 6.3 05:08:07 10° WNW 05:29:41 27° N 05:43:09 10° NE visible
21 May 5.6 22:03:28 10° SW 22:25:13 78° SSE 22:58:39 10° ENE visible
22 May 6.1 00:53:13 10° WSW 01:22:26 57° NNW 01:51:29 10° NE visible
22 May 6.4 03:56:33 10° WNW 04:22:44 31° NNW 04:40:10 10° NE visible
22 May 6.0 07:03:32 10° NW 07:19:10 27° N 07:28:29 10° ENE visible
22 May 5.5 21:01:17 10° SW 21:19:33 63° SE 21:51:00 10° ENE visible
22 May 5.9 23:48:10 10° WSW 00:14:49 69° NNW 00:46:54 10° NE visible
23 May 6.4 02:46:00 10° W 03:14:57 37° NNW 03:36:51 10° NE visible
23 May 6.2 05:54:54 10° NW 06:14:07 27° N 06:25:41 10° NE visible
23 May 5.5 19:59:43 10° SW 20:14:43 48° SSE 20:41:54 10° ENE visible
23 May 5.7 22:44:27 10° WSW 23:07:46 82° NNW 23:41:23 10° NE visible
24 May 6.3 01:37:28 10° W 02:06:45 45° NNW 02:33:05 10° NE visible
24 May 6.4 04:44:26 10° WNW 05:07:51 29° N 05:22:32 10° NE visible
24 May 5.5 21:41:44 10° SW 22:01:36 83° SSE 22:34:46 10° ENE visible
25 May 6.2 00:30:59 10° W 00:58:36 54° NNW 01:28:42 10° NE visible
25 May 6.5 03:33:23 10° WNW 04:00:23 32° N 04:19:03 10° NE visible
25 May 5.9 06:39:24 10° NW 06:57:48 32° N 07:08:16 10° ENE visible
25 May 5.4 20:39:47 10° SW 20:56:24 66° SE 21:26:56 10° ENE visible
25 May 6.0 23:26:12 10° WSW 23:50:55 65° NNW 00:23:34 10° NE visible
26 May 6.5 02:23:21 10° WNW 02:52:01 37° NNW 03:15:09 10° NE visible
26 May 6.2 05:30:46 10° NW 05:52:31 30° N 06:05:20 10° ENE visible
26 May 5.3 19:38:25 10° SW 19:52:06 50° SE 20:17:57 10° ENE visible
26 May 5.7 22:22:43 10° WSW 22:44:04 78° NNW 23:17:35 10° NE visible
27 May 6.4 01:15:13 10° W 01:43:20 43° NNW 02:10:44 10° NE visible
27 May 6.4 04:20:44 10° WNW 04:45:53 30° N 05:01:53 10° NE visible
27 May 5.5 07:22:18 10° NW 07:40:35 42° NNE 07:50:18 10° E visible
27 May 5.5 21:20:11 10° WSW 21:38:15 87° SSE 22:10:38 10° ENE visible
28 May 6.3 00:09:02 10° W 00:34:56 51° NNW 01:05:42 10° NE visible
28 May 6.5 03:10:20 10° WNW 03:37:58 32° N 03:57:54 10° NE visible
28 May 5.9 06:15:05 10° NW 06:36:16 36° NNE 06:47:54 10° ENE visible
28 May 5.2 20:18:24 10° SW 20:33:29 70° SE 21:02:43 10° ENE visible
28 May 6.0 23:04:29 10° WSW 23:27:16 60° NNW 00:00:00 10° NE visible
29 May 6.6 02:00:54 10° WNW 02:29:08 36° NNW 02:53:22 10° NE visible
29 May 6.2 05:06:33 10° NW 05:30:44 34° N 05:44:52 10° ENE visible
29 May 5.7 22:01:10 10° WSW 22:20:39 72° NNW 22:53:32 10° NE visible
30 May 6.5 00:53:13 10° W 01:20:04 41° NNW 01:48:14 10° NE visible
30 May 6.4 03:57:03 10° NW 04:23:47 33° N 04:41:09 10° ENE visible
30 May 5.4 06:58:05 10° NW 07:19:03 49° NNE 07:29:45 10° E visible
30 May 5.4 20:58:48 10° WSW 21:15:11 87° NNW 21:46:18 10° ENE visible
